Regional Weather Roundup
Issued by NWS

Home | Current Version | Previous Version | Graphics & Text | Print | Product List | Glossary On
Versions: 1 2 3 4 5 6 7 8 9 10 11 12 13 14 15 16 17 18 19 20 21 22 23 24 25 26 27 28 29 30 31 32 33 34 35 36 37 38 39 40 41 42 43 44 45 46 47 48 49 50
000
ASUS43 KTOP 252059
RWRKS

WEATHER ROUNDUP FOR KANSAS
NATIONAL WEATHER SERVICE GOODLAND KS
400 PM CDT SAT APR 25 2015

NOTE:  "FAIR" INDICATES FEW OR NO CLOUDS BELOW 12,000 FEET WITH NO
SIGNIFICANT WEATHER AND/OR OBSTRUCTIONS TO VISIBILITY.

KSZ001>006-013>018-027>032-041>047-252200-
NORTHWEST KANSAS

CITY           SKY/WX    TMP DP  RH WIND       PRES   REMARKS
GOODLAND       MOSUNNY   72  43  35 NE8       29.70F
HAYS           SUNNY     70  52  52 NE16      29.67F
HILL CITY      PTSUNNY   67  55  65 E15G23    29.68S
RUSSELL        PTSUNNY   66  53  63 N12       29.67S
$$

KSZ061>065-074>080-084>089-252200-
SOUTHWEST KANSAS

CITY           SKY/WX    TMP DP  RH WIND       PRES   REMARKS
DODGE CITY     SUNNY     77  40  26 NE7       29.66F
ELKHART          N/A     78  35  21 E12         N/A
GARDEN CITY    SUNNY     76  41  28 N9        29.66F
GREAT BEND     SUNNY     70  55  60 N15G21    29.66S
LIBERAL        SUNNY     79  36  21 E7        29.68F
$$

KSZ066>073-081>083-090>101-252200-
SOUTHEAST KANSAS

CITY           SKY/WX    TMP DP  RH WIND       PRES   REMARKS
CHANUTE        CLOUDY    71  54  54 NW20G26   29.59R
COFFEYVILLE    MOSUNNY   77  55  46 NW21      29.57R
HUTCHINSON     MOSUNNY   74  52  46 NW8       29.63F
MEDICINE LODGE   N/A     81  48  31 N9        29.61F
NEWTON         PTSUNNY   70  54  56 N10G20    29.65F
PARSONS        MOSUNNY   76  56  49 NW16G24   29.59R
WICHITA INTL   MOSUNNY   74  54  49 N15       29.62S
WICHITA JABRA  MOSUNNY   73  54  51 N16       29.62S
WINFIELD       MOSUNNY   78  53  41 NW16      29.61F
$$

KSZ007>012-019>026-033>040-048>060-102>105-252200-
NORTHEAST KANSAS

CITY           SKY/WX    TMP DP  RH WIND       PRES   REMARKS
CONCORDIA      CLOUDY    56  51  84 N10       29.69S
EMPORIA        PTSUNNY   66  55  67 NW16G23   29.62R
LAWRENCE       CLOUDY    60  54  80 NW18      29.62R
MANHATTAN      CLOUDY    58  53  84 N9        29.66S
OLATHE IND     CLOUDY    60  55  83 NW18      29.61R
OLATHE EXE     CLOUDY    61  55  81 N14       29.59R
SALINA         PTSUNNY   69  53  56 N17       29.65S
TOPEKA BILLARD CLOUDY    57  54  89 N14       29.64R
TOPEKA FORBES  CLOUDY    61  54  77 N17       29.63R
$$



USA.gov is the U.S. government's official web portal to all federal, state and local government web resources and services.